,,Stat6,,Stat2,,Stat8,,Stat9,,Stat10,,Wind1,,Wind1,
time,status,PA1M_AVG,status,PR1M_SUM,status,RH1M_AVG,status,SR1M_AVG,status,TA1M_AVG,status,W1dAve1m,status,W1sAve1m,
2008-03-24, 00:00:00,VALID,916.569,VALID,0,VALID,100,VALID,-0.0339617,VALID,19.726,VALID,133,VALID,0.713118,
2008-03-24, 00:01:00,VALID,916.554,VALID,0,VALID,100,VALID,-0.0339617,VALID,19.7128,VALID,133,VALID,0.680078,
2008-03-24, 00:02:00,VALID,916.554,VALID,0,VALID,100,VALID,-0.0509425,VALID,19.7163,VALID,133,VALID,0.845348,
2008-03-24, 00:03:00,VALID,916.538,VALID,0,VALID,100,VALID,-0.0339617,VALID,19.7293,VALID,129,VALID,0.733817,
2008-03-24, 00:04:00,VALID,916.539,VALID,0,VALID,100,VALID,-0.0849042,VALID,19.7006,VALID,114,VALID,0.509084,
2008-03-24, 00:05:00,VALID,916.525,VALID,0,VALID,100,VALID,-0.0509425,VALID,19.6579,VALID,113,VALID,0.673611,
2008-03-24, 00:06:00,VALID,916.521,VALID,0,VALID,100,VALID,-0.0849042,VALID,19.6382,VALID,126,VALID,0.843006,
2008-03-24, 00:07:00,VALID,916.508,VALID,0,VALID,100,VALID,-0.0509425,VALID,19.6249,VALID,126,VALID,0.634301,
2008-03-24, 00:08:00,VALID,916.504,VALID,0,VALID,100,VALID,-0.0339617,VALID,19.6219,VALID,126,VALID,0.626953,
2008-03-24, 00:09:00,VALID,916.496,VALID,0,VALID,100,VALID,-0.0849042,VALID,19.6154,VALID,126,VALID,0.685069,
2008-03-24, 00:10:00,VALID,916.488,VALID,0,VALID,100,VALID,-0.0509425,VALID,19.6222,VALID,147,VALID,0.657703,
2008-03-24, 00:11:00,VALID,916.468,VALID,0,VALID,100,VALID,-0.0509425,VALID,19.6412,VALID,147,VALID,0.717152,
2008-03-24, 00:12:00,VALID,916.453,VALID,0,VALID,100,VALID,-0.0339617,VALID,19.6708,VALID,146,VALID,0.364281,
2008-03-24, 00:13:00,VALID,916.432,VALID,0,VALID,100,VALID,-0.0679233,VALID,19.7001,VALID,146,VALID,0,
2008-03-24, 00:14:00,VALID,916.406,VALID,0,VALID,100,VALID,-0.0679233,VALID,19.6866,VALID,146,VALID,0,
2008-03-24, 00:15:00,VALID,916.38,VALID,0,VALID,100,VALID,-0.0509425,VALID,19.6738,VALID,146,VALID,0,
2008-03-24, 00:16:00,VALID,916.364,VALID,0,VALID,100,VALID,-0.0679233,VALID,19.6711,VALID,141,VALID,0,
2008-03-24, 00:17:00,VALID,916.344,VALID,0,VALID,100,VALID,-0.0849042,VALID,19.6554,VALID,132,VALID,0,
2008-03-24, 00:18:00,VALID,916.331,VALID,0,VALID,100,VALID,-0.0679233,VALID,19.6222,VALID,126,VALID,0,
2008-03-24, 00:19:00,VALID,916.316,VALID,0,VALID,100,VALID,-0.0339617,VALID,19.6094,VALID,108,VALID,0,
2008-03-24, 00:20:00,VALID,916.315,VALID,0,VALID,100,VALID,-0.0679233,VALID,19.6099,VALID,94,VALID,0.677734,
2008-03-24, 00:21:00,VALID,916.296,VALID,0,VALID,100,VALID,-0.0679233,VALID,19.6391,VALID,98,VALID,0.641369,
2008-03-24, 00:22:00,VALID,916.294,VALID,0,VALID,100,VALID,-0.0339617,VALID,19.6811,VALID,104,VALID,0.662464,
2008-03-24, 00:23:00,VALID,916.279,VALID,0,VALID,100,VALID,-0.0339617,VALID,19.7068,VALID,107,VALID,0.673971,
2008-03-24, 00:24:00,VALID,916.267,VALID,0,VALID,100,VALID,-0.0509425,VALID,19.7362,VALID,111,VALID,0.434048,
2008-03-24, 00:25:00,VALID,916.263,VALID,0,VALID,100,VALID,-0.0339617,VALID,19.7562,VALID,115,VALID,0.678354,
2008-03-24, 00:26:00,VALID,916.256,VALID,0,VALID,100,VALID,-0.0339617,VALID,19.7527,VALID,124,VALID,0.643601,
2008-03-24, 00:27:00,VALID,916.264,VALID,0,VALID,100,VALID,-0.0679233,VALID,19.7522,VALID,128,VALID,0.571975,
2008-03-24, 00:28:00,VALID,916.27,VALID,0,VALID,100,VALID,-0.101885,VALID,19.7689,VALID,129,VALID,0.746701,
2008-03-24, 00:29:00,VALID,916.27,VALID,0,VALID,100,VALID,-0.0679233,VALID,19.7884,VALID,130,VALID,0.84096,
2008-03-24, 00:30:00,VALID,916.278,VALID,0,VALID,100,VALID,-0.0339617,VALID,19.8109,VALID,130,VALID,0.180804,
2008-03-24, 00:31:00,VALID,916.264,VALID,0,VALID,100,VALID,-0.0849042,VALID,19.8079,VALID,130,VALID,0,
2008-03-24, 00:32:00,VALID,916.255,VALID,0,VALID,100,VALID,-0.0339617,VALID,19.8009,VALID,130,VALID,0,
2008-03-24, 00:33:00,VALID,916.222,VALID,0,VALID,100,VALID,0,VALID,19.7288,VALID,130,VALID,0,
2008-03-24, 00:34:00,VALID,916.195,VALID,0,VALID,100,VALID,0.0679233,VALID,19.6661,VALID,130,VALID,0,
2008-03-24, 00:35:00,VALID,916.172,VALID,0,VALID,100,VALID,0.0169808,VALID,19.6439,VALID,130,VALID,0,
2008-03-24, 00:36:00,VALID,916.136,VALID,0,VALID,100,VALID,0.0339617,VALID,19.6536,VALID,130,VALID,0,
2008-03-24, 00:37:00,VALID,916.112,VALID,0,VALID,100,VALID,0.0169808,VALID,19.6796,VALID,130,VALID,0,
2008-03-24, 00:38:00,VALID,916.088,VALID,0,VALID,100,VALID,0.0509425,VALID,19.6796,VALID,130,VALID,0,
2008-03-24, 00:39:00,VALID,916.083,VALID,0,VALID,100,VALID,0.0339617,VALID,19.6694,VALID,130,VALID,0,
2008-03-24, 00:40:00,VALID,916.08,VALID,0,VALID,100,VALID,0,VALID,19.7088,VALID,130,VALID,0,
2008-03-24, 00:41:00,VALID,916.063,VALID,0,VALID,100,VALID,0.101885,VALID,19.7305,VALID,130,VALID,0,
2008-03-24, 00:42:00,VALID,916.061,VALID,0,VALID,100,VALID,0.0679233,VALID,19.748,VALID,130,VALID,0,
2008-03-24, 00:43:00,VALID,916.078,VALID,0,VALID,100,VALID,0.0509425,VALID,19.754,VALID,130,VALID,0.0784647,
2008-03-24, 00:44:00,VALID,916.07,VALID,0,VALID,100,VALID,0.0679233,VALID,19.7702,VALID,135,VALID,0.680859,
2008-03-24, 00:45:00,VALID,916.068,VALID,0,VALID,100,VALID,0.0509425,VALID,19.7602,VALID,144,VALID,0.680414,
2008-03-24, 00:46:00,VALID,916.078,VALID,0,VALID,100,VALID,0.0509425,VALID,19.7477,VALID,149,VALID,0.831055,
2008-03-24, 00:47:00,VALID,916.058,VALID,0,VALID,100,VALID,0.0169808,VALID,19.738,VALID,152,VALID,0.649182,
2008-03-24, 00:48:00,VALID,916.067,VALID,0,VALID,100,VALID,-0.0169808,VALID,19.7258,VALID,153,VALID,0.50728,
2008-03-24, 00:49:00,VALID,916.067,VALID,0,VALID,100,VALID,-0.0679233,VALID,19.713,VALID,151,VALID,0.0293899,
2008-03-24, 00:50:00,VALID,916.067,VALID,0,VALID,100,VALID,-0.0169808,VALID,19.7263,VALID,146,VALID,0,
2008-03-24, 00:51:00,VALID,916.043,VALID,0,VALID,100,VALID,-0.0169808,VALID,19.7068,VALID,135,VALID,0,
2008-03-24, 00:52:00,VALID,916.046,VALID,0,VALID,100,VALID,-0.0169808,VALID,19.6908,VALID,135,VALID,0,
2008-03-24, 00:53:00,VALID,916.035,VALID,0,VALID,100,VALID,-0.0509425,VALID,19.6911,VALID,135,VALID,0,
2008-03-24, 00:54:00,VALID,916.009,VALID,0,VALID,100,VALID,-0.0679233,VALID,19.6876,VALID,135,VALID,0,
2008-03-24, 00:55:00,VALID,916,VALID,0,VALID,100,VALID,-0.0509425,VALID,19.6576,VALID,135,VALID,0,
2008-03-24, 00:56:00,VALID,915.989,VALID,0,VALID,100,VALID,-0.0509425,VALID,19.6292,VALID,135,VALID,0,
2008-03-24, 00:57:00,VALID,915.974,VALID,0,VALID,100,VALID,-0.0679233,VALID,19.6057,VALID,135,VALID,0,
2008-03-24, 00:58:00,VALID,915.971,VALID,0,VALID,100,VALID,-0.0509425,VALID,19.6159,VALID,121,VALID,0,
2008-03-24, 00:59:00,VALID,915.964,VALID,0,VALID,100,VALID,-0.0509425,VALID,19.6122,VALID,120,VALID,0,
2008-03-24, 01:00:00,VALID,915.954,VALID,0,VALID,100,VALID,-0.0509425,VALID,19.5837,VALID,120,VALID,0,
2008-03-24, 01:01:00,VALID,915.931,VALID,0,VALID,100,VALID,-0.0679233,VALID,19.5872,VALID,120,VALID,0,
2008-03-24, 01:02:00,VALID,915.917,VALID,0,VALID,100,VALID,-0.0339617,VALID,19.5638,VALID,120,VALID,0,
2008-03-24, 01:03:00,VALID,915.899,VALID,0,VALID,100,VALID,-0.0509425,VALID,19.551,VALID,120,VALID,0,
2008-03-24, 01:04:00,VALID,915.885,VALID,0,VALID,100,VALID,0.0679233,VALID,19.5141,VALID,120,VALID,0,
2008-03-24, 01:05:00,VALID,915.853,VALID,0,VALID,100,VALID,0.0849042,VALID,19.4909,VALID,115,VALID,0,
2008-03-24, 01:06:00,VALID,915.832,VALID,0,VALID,100,VALID,0.0169808,VALID,19.4689,VALID,111,VALID,0.385417,
2008-03-24, 01:07:00,VALID,915.795,VALID,0,VALID,100,VALID,0.0849042,VALID,19.4425,VALID,109,VALID,0.755716,
2008-03-24, 01:08:00,VALID,915.768,VALID,0,VALID,100,VALID,0.0679233,VALID,19.4195,VALID,116,VALID,0.792614,
2008-03-24, 01:09:00,VALID,915.753,VALID,0,VALID,100,VALID,0.0679233,VALID,19.4103,VALID,116,VALID,0.691311,
2008-03-24, 01:10:00,VALID,915.718,VALID,0,VALID,100,VALID,0.0509425,VALID,19.3936,VALID,117,VALID,0.791969,
2008-03-24, 01:11:00,VALID,915.688,VALID,0,VALID,100,VALID,0.0679233,VALID,19.3971,VALID,122,VALID,0.00253906,
2008-03-24, 01:12:00,VALID,915.669,VALID,0,VALID,100,VALID,0.101885,VALID,19.3637,VALID,120,VALID,0,
2008-03-24, 01:13:00,VALID,915.645,VALID,0,VALID,100,VALID,0.0679233,VALID,19.3612,VALID,113,VALID,0,
2008-03-24, 01:14:00,VALID,915.621,VALID,0,VALID,100,VALID,0.0509425,VALID,19.3547,VALID,108,VALID,0,
2008-03-24, 01:15:00,VALID,915.617,VALID,0,VALID,100,VALID,0.0679233,VALID,19.3547,VALID,115,VALID,0,
2008-03-24, 01:16:00,VALID,915.601,VALID,0,VALID,100,VALID,0.0679233,VALID,19.3612,VALID,102,VALID,0,
2008-03-24, 01:17:00,VALID,915.602,VALID,0,VALID,100,VALID,0.101885,VALID,19.3637,VALID,102,VALID,0,
2008-03-24, 01:18:00,VALID,915.599,VALID,0,VALID,100,VALID,0.0169808,VALID,19.3612,VALID,102,VALID,0,
2008-03-24, 01:19:00,VALID,915.611,VALID,0,VALID,100,VALID,-0.0509425,VALID,19.3457,VALID,102,VALID,0,
2008-03-24, 01:20:00,VALID,915.606,VALID,0,VALID,100,VALID,-0.0339617,VALID,19.3524,VALID,102,VALID,0,
2008-03-24, 01:21:00,VALID,915.611,VALID,0,VALID,100,VALID,-0.0509425,VALID,19.3626,VALID,100,VALID,0.5,
2008-03-24, 01:22:00,VALID,915.592,VALID,0,VALID,100,VALID,-0.0679233,VALID,19.3694,VALID,100,VALID,0.794922,
2008-03-24, 01:23:00,VALID,915.577,VALID,0,VALID,100,VALID,-0.0509425,VALID,19.3721,VALID,126,VALID,0.914244,
2008-03-24, 01:24:00,VALID,915.567,VALID,0,VALID,100,VALID,-0.0679233,VALID,19.3684,VALID,131,VALID,0.829578,
2008-03-24, 01:25:00,VALID,915.551,VALID,0,VALID,100,VALID,-0.0509425,VALID,19.3626,VALID,137,VALID,0.728906,
2008-03-24, 01:26:00,VALID,915.534,VALID,0,VALID,100,VALID,-0.0169808,VALID,19.3459,VALID,134,VALID,0.865885,
2008-03-24, 01:27:00,VALID,915.53,VALID,0,VALID,100,VALID,-0.0339617,VALID,19.3522,VALID,134,VALID,1.01744,
2008-03-24, 01:28:00,VALID,915.521,VALID,0,VALID,100,VALID,-0.0169808,VALID,19.3686,VALID,131,VALID,0.830611,
2008-03-24, 01:29:00,VALID,915.514,VALID,0,VALID,100,VALID,-0.0169808,VALID,19.3781,VALID,134,VALID,0.389509,
2008-03-24, 01:30:00,VALID,915.502,VALID,0,VALID,100,VALID,-0.0679233,VALID,19.3846,VALID,134,VALID,0.678354,
2008-03-24, 01:31:00,VALID,915.49,VALID,0,VALID,100,VALID,-0.0679233,VALID,19.4011,VALID,135,VALID,0.715199,
2008-03-24, 01:32:00,VALID,915.474,VALID,0,VALID,100,VALID,0,VALID,19.417,VALID,144,VALID,0.286577,
2008-03-24, 01:33:00,VALID,915.464,VALID,0,VALID,100,VALID,-0.0339617,VALID,19.4198,VALID,146,VALID,0,
2008-03-24, 01:34:00,VALID,915.453,VALID,0,VALID,100,VALID,0,VALID,19.427,VALID,146,VALID,0,
2008-03-24, 01:35:00,VALID,915.44,VALID,0,VALID,100,VALID,-0.0509425,VALID,19.4268,VALID,146,VALID,0,
2008-03-24, 01:36:00,VALID,915.42,VALID,0,VALID,100,VALID,-0.0169808,VALID,19.4105,VALID,146,VALID,0,
2008-03-24, 01:37:00,VALID,915.405,VALID,0,VALID,100,VALID,-0.0339617,VALID,19.4205,VALID,146,VALID,0,
2008-03-24, 01:38:00,VALID,915.385,VALID,0,VALID,100,VALID,-0.0339617,VALID,19.4073,VALID,146,VALID,0,
2008-03-24, 01:39:00,VALID,915.371,VALID,0,VALID,100,VALID,-0.0169808,VALID,19.4138,VALID,146,VALID,0,
2008-03-24, 01:40:00,VALID,915.374,VALID,0,VALID,100,VALID,-0.0169808,VALID,19.4238,VALID,146,VALID,0,
2008-03-24, 01:41:00,VALID,915.384,VALID,0,VALID,100,VALID,-0.0169808,VALID,19.4365,VALID,146,VALID,0,
2008-03-24, 01:42:00,VALID,915.398,VALID,0,VALID,100,VALID,-0.0339617,VALID,19.4365,VALID,146,VALID,0,
2008-03-24, 01:43:00,VALID,915.4,VALID,0,VALID,100,VALID,-0.0169808,VALID,19.4235,VALID,146,VALID,0,
2008-03-24, 01:44:00,VALID,915.397,VALID,0,VALID,100,VALID,0,VALID,19.4363,VALID,146,VALID,0,
2008-03-24, 01:45:00,VALID,915.407,VALID,0,VALID,100,VALID,-0.0169808,VALID,19.3943,VALID,146,VALID,0,
2008-03-24, 01:46:00,VALID,915.397,VALID,0,VALID,100,VALID,-0.0339617,VALID,19.3454,VALID,146,VALID,0,
2008-03-24, 01:47:00,VALID,915.385,VALID,0,VALID,100,VALID,-0.0509425,VALID,19.3267,VALID,146,VALID,0,
2008-03-24, 01:48:00,VALID,915.387,VALID,0,VALID,100,VALID,-0.0169808,VALID,19.3097,VALID,146,VALID,0,
2008-03-24, 01:49:00,VALID,915.375,VALID,0,VALID,100,VALID,0.0509425,VALID,19.2993,VALID,146,VALID,0,
2008-03-24, 01:50:00,VALID,915.366,VALID,0,VALID,100,VALID,0.0169808,VALID,19.299,VALID,146,VALID,0,
2008-03-24, 01:51:00,VALID,915.355,VALID,0,VALID,100,VALID,0.0339617,VALID,19.3152,VALID,146,VALID,0,
2008-03-24, 01:52:00,VALID,915.336,VALID,0,VALID,100,VALID,0.0679233,VALID,19.325,VALID,146,VALID,0,
2008-03-24, 01:53:00,VALID,915.312,VALID,0,VALID,100,VALID,0.0849042,VALID,19.3377,VALID,146,VALID,0,
2008-03-24, 01:54:00,VALID,915.298,VALID,0,VALID,100,VALID,0,VALID,19.338,VALID,146,VALID,0,
2008-03-24, 01:55:00,VALID,915.277,VALID,0,VALID,100,VALID,0.0339617,VALID,19.3509,VALID,146,VALID,0,
2008-03-24, 01:56:00,VALID,915.251,VALID,0,VALID,100,VALID,0.0509425,VALID,19.3509,VALID,146,VALID,0,
2008-03-24, 01:57:00,VALID,915.235,VALID,0,VALID,100,VALID,0.0509425,VALID,19.3542,VALID,146,VALID,0,
2008-03-24, 01:58:00,VALID,915.212,VALID,0,VALID,100,VALID,0.0509425,VALID,19.3704,VALID,146,VALID,0,
2008-03-24, 01:59:00,VALID,915.193,VALID,0,VALID,100,VALID,0.101885,VALID,19.3734,VALID,146,VALID,0,
2008-03-24, 02:00:00,VALID,915.171,VALID,0,VALID,100,VALID,0.0509425,VALID,19.3929,VALID,146,VALID,0,
2008-03-24, 02:01:00,VALID,915.168,VALID,0,VALID,100,VALID,0.0509425,VALID,19.3996,VALID,146,VALID,0,
2008-03-24, 02:02:00,VALID,915.148,VALID,0,VALID,100,VALID,0.0339617,VALID,19.4058,VALID,146,VALID,0,
2008-03-24, 02:03:00,VALID,915.143,VALID,0,VALID,100,VALID,0.0339617,VALID,19.4195,VALID,146,VALID,0,
2008-03-24, 02:04:00,VALID,915.123,VALID,0,VALID,100,VALID,0,VALID,19.4235,VALID,146,VALID,0,
2008-03-24, 02:05:00,VALID,915.12,VALID,0,VALID,100,VALID,-0.0169808,VALID,19.414,VALID,146,VALID,0,
2008-03-24, 02:06:00,VALID,915.108,VALID,0,VALID,100,VALID,-0.0339617,VALID,19.4073,VALID,146,VALID,0,
2008-03-24, 02:07:00,VALID,915.08,VALID,0,VALID,100,VALID,0,VALID,19.3943,VALID,150,VALID,0,
2008-03-24, 02:08:00,VALID,915.087,VALID,0,VALID,100,VALID,0,VALID,19.3492,VALID,162,VALID,0,
2008-03-24, 02:09:00,VALID,915.076,VALID,0,VALID,100,VALID,-0.0339617,VALID,19.317,VALID,168,VALID,0.0372456,
2008-03-24, 02:10:00,VALID,915.061,VALID,0,VALID,100,VALID,-0.0339617,VALID,19.2938,VALID,167,VALID,0.162016,
2008-03-24, 02:11:00,VALID,915.042,VALID,0,VALID,100,VALID,0,VALID,19.2713,VALID,170,VALID,0.0621528,
2008-03-24, 02:12:00,VALID,915.016,VALID,0,VALID,100,VALID,-0.0169808,VALID,19.268,VALID,170,VALID,0.03125,
2008-03-24, 02:13:00,VALID,915.005,VALID,0,VALID,100,VALID,-0.0339617,VALID,19.2618,VALID,170,VALID,0,
2008-03-24, 02:14:00,VALID,914.994,VALID,0,VALID,100,VALID,0,VALID,19.2516,VALID,170,VALID,0.118576,
2008-03-24, 02:15:00,VALID,914.976,VALID,0,VALID,100,VALID,-0.0339617,VALID,19.2486,VALID,170,VALID,0.255962,
2008-03-24, 02:16:00,VALID,914.971,VALID,0,VALID,100,VALID,0,VALID,19.2321,VALID,169,VALID,0.192708,
2008-03-24, 02:17:00,VALID,914.946,VALID,0,VALID,100,VALID,-0.0169808,VALID,19.2294,VALID,168,VALID,0.00266768,
2008-03-24, 02:18:00,VALID,914.925,VALID,0,VALID,100,VALID,0,VALID,19.2219,VALID,168,VALID,0,
2008-03-24, 02:19:00,VALID,914.909,VALID,0,VALID,100,VALID,0.0169808,VALID,19.2386,VALID,168,VALID,0,
2008-03-24, 02:20:00,VALID,914.887,VALID,0,VALID,100,VALID,0.0169808,VALID,19.2481,VALID,166,VALID,0,
2008-03-24, 02:21:00,VALID,914.85,VALID,0,VALID,100,VALID,0,VALID,19.2483,VALID,152,VALID,0,
2008-03-24, 02:22:00,VALID,914.827,VALID,0,VALID,100,VALID,0,VALID,19.2354,VALID,147,VALID,0,
2008-03-24, 02:23:00,VALID,914.82,VALID,0,VALID,100,VALID,0,VALID,19.2386,VALID,147,VALID,0,
2008-03-24, 02:24:00,VALID,914.812,VALID,0,VALID,100,VALID,0,VALID,19.2386,VALID,147,VALID,0,
2008-03-24, 02:25:00,VALID,914.801,VALID,0,VALID,100,VALID,-0.0169808,VALID,19.2481,VALID,147,VALID,0,
2008-03-24, 02:26:00,VALID,914.81,VALID,0,VALID,100,VALID,-0.0169808,VALID,19.2748,VALID,147,VALID,0.00941051,
2008-03-24, 02:27:00,VALID,914.815,VALID,0,VALID,100,VALID,-0.0169808,VALID,19.2743,VALID,148,VALID,0.197976,
2008-03-24, 02:28:00,VALID,914.825,VALID,0,VALID,100,VALID,-0.0169808,VALID,19.2875,VALID,148,VALID,0,
2008-03-24, 02:29:00,VALID,914.817,VALID,0,VALID,100,VALID,0,VALID,19.287,VALID,148,VALID,0,
2008-03-24, 02:30:00,VALID,914.815,VALID,0,VALID,100,VALID,0,VALID,19.284,VALID,148,VALID,0,
2008-03-24, 02:31:00,VALID,914.796,VALID,0,VALID,100,VALID,0,VALID,19.2743,VALID,146,VALID,0,
2008-03-24, 02:32:00,VALID,914.78,VALID,0,VALID,100,VALID,-0.0169808,VALID,19.268,VALID,146,VALID,0,
2008-03-24, 02:33:00,VALID,914.75,VALID,0,VALID,100,VALID,-0.0169808,VALID,19.2551,VALID,146,VALID,0,
2008-03-24, 02:34:00,VALID,914.732,VALID,0,VALID,100,VALID,0,VALID,19.2386,VALID,146,VALID,0,
2008-03-24, 02:35:00,VALID,914.723,VALID,0,VALID,100,VALID,0.0169808,VALID,19.2354,VALID,146,VALID,0,
2008-03-24, 02:36:00,VALID,914.715,VALID,0,VALID,100,VALID,0,VALID,19.2259,VALID,146,VALID,0,
2008-03-24, 02:37:00,VALID,914.713,VALID,0,VALID,100,VALID,-0.0169808,VALID,19.2256,VALID,146,VALID,0,
2008-03-24, 02:38:00,VALID,914.714,VALID,0,VALID,100,VALID,0,VALID,19.2059,VALID,146,VALID,0,
2008-03-24, 02:39:00,VALID,914.694,VALID,0,VALID,100,VALID,0,VALID,19.1929,VALID,146,VALID,0,
2008-03-24, 02:40:00,VALID,914.689,VALID,0,VALID,100,VALID,0.0339617,VALID,19.1767,VALID,146,VALID,0,
2008-03-24, 02:41:00,VALID,914.677,VALID,0,VALID,100,VALID,-0.0169808,VALID,19.167,VALID,146,VALID,0,
2008-03-24, 02:42:00,VALID,914.689,VALID,0,VALID,100,VALID,0,VALID,19.1897,VALID,146,VALID,0,
2008-03-24, 02:43:00,VALID,914.696,VALID,0,VALID,100,VALID,0,VALID,19.1865,VALID,146,VALID,0,
2008-03-24, 02:44:00,VALID,914.698,VALID,0,VALID,100,VALID,0,VALID,19.164,VALID,146,VALID,0,
2008-03-24, 02:45:00,VALID,914.711,VALID,0,VALID,100,VALID,0.0169808,VALID,19.1308,VALID,146,VALID,0,
2008-03-24, 02:46:00,VALID,914.706,VALID,0,VALID,100,VALID,-0.0169808,VALID,19.0732,VALID,146,VALID,0,
2008-03-24, 02:47:00,VALID,914.705,VALID,0,VALID,100,VALID,0,VALID,18.9953,VALID,146,VALID,0,
2008-03-24, 02:48:00,VALID,914.699,VALID,0,VALID,100,VALID,0,VALID,18.9633,VALID,146,VALID,0,
2008-03-24, 02:49:00,VALID,914.708,VALID,0,VALID,100,VALID,0,VALID,18.9272,VALID,146,VALID,0,
2008-03-24, 02:50:00,VALID,914.705,VALID,0,VALID,100,VALID,0,VALID,18.9175,VALID,144,VALID,0.391352,
2008-03-24, 02:51:00,VALID,914.697,VALID,0,VALID,100,VALID,-0.0169808,VALID,18.9337,VALID,145,VALID,0.581759,
2008-03-24, 02:52:00,VALID,914.679,VALID,0,VALID,100,VALID,0,VALID,18.9531,VALID,147,VALID,0.508929,
2008-03-24, 02:53:00,VALID,914.65,VALID,0,VALID,100,VALID,0,VALID,18.9796,VALID,148,VALID,0.104581,
2008-03-24, 02:54:00,VALID,914.641,VALID,0,VALID,100,VALID,-0.0169808,VALID,18.9986,VALID,149,VALID,0,
2008-03-24, 02:55:00,VALID,914.645,VALID,0,VALID,100,VALID,0,VALID,19.021,VALID,149,VALID,0,
2008-03-24, 02:56:00,VALID,914.641,VALID,0,VALID,100,VALID,-0.0509425,VALID,19.031,VALID,161,VALID,0,
2008-03-24, 02:57:00,VALID,914.658,VALID,0,VALID,100,VALID,0.0169808,VALID,19.0405,VALID,174,VALID,0,
2008-03-24, 02:58:00,VALID,914.664,VALID,0,VALID,100,VALID,0.0169808,VALID,19.0569,VALID,174,VALID,0.0632102,
2008-03-24, 02:59:00,VALID,914.666,VALID,0,VALID,100,VALID,0,VALID,19.0412,VALID,174,VALID,0.000195313,
2008-03-24, 03:00:00,VALID,914.663,VALID,0,VALID,100,VALID,0,VALID,18.9594,VALID,173,VALID,0.0480183,
2008-03-24, 03:01:00,VALID,914.676,VALID,0,VALID,100,VALID,0.0169808,VALID,18.9042,VALID,173,VALID,0,
2008-03-24, 03:02:00,VALID,914.673,VALID,0,VALID,100,VALID,-0.0169808,VALID,18.8915,VALID,168,VALID,0,
2008-03-24, 03:03:00,VALID,914.667,VALID,0,VALID,100,VALID,-0.0169808,VALID,18.8551,VALID,141,VALID,0.086128,
2008-03-24, 03:04:00,VALID,914.661,VALID,0,VALID,100,VALID,0.0509425,VALID,18.8481,VALID,114,VALID,0.0772372,
2008-03-24, 03:05:00,VALID,914.657,VALID,0,VALID,100,VALID,0.0849042,VALID,18.8282,VALID,114,VALID,0,
2008-03-24, 03:06:00,VALID,914.626,VALID,0,VALID,100,VALID,0.0339617,VALID,18.8122,VALID,114,VALID,0,
2008-03-24, 03:07:00,VALID,914.624,VALID,0,VALID,100,VALID,0.0339617,VALID,18.7928,VALID,114,VALID,0,
2008-03-24, 03:08:00,VALID,914.607,VALID,0,VALID,100,VALID,0.0169808,VALID,18.7895,VALID,114,VALID,0,
2008-03-24, 03:09:00,VALID,914.612,VALID,0,VALID,100,VALID,0.0339617,VALID,18.7833,VALID,114,VALID,0,
2008-03-24, 03:10:00,VALID,914.615,VALID,0,VALID,100,VALID,0.0849042,VALID,18.7666,VALID,114,VALID,0,
2008-03-24, 03:11:00,VALID,914.64,VALID,0,VALID,100,VALID,0.0849042,VALID,18.7599,VALID,115,VALID,0,
2008-03-24, 03:12:00,VALID,914.656,VALID,0,VALID,100,VALID,0.0849042,VALID,18.7599,VALID,117,VALID,0,
2008-03-24, 03:13:00,VALID,914.661,VALID,0,VALID,100,VALID,0.0509425,VALID,18.7666,VALID,119,VALID,0.134588,
2008-03-24, 03:14:00,VALID,914.669,VALID,0,VALID,100,VALID,0.0679233,VALID,18.7796,VALID,119,VALID,0.190799,
2008-03-24, 03:15:00,VALID,914.666,VALID,0,VALID,100,VALID,0.0679233,VALID,18.7636,VALID,119,VALID,0,
2008-03-24, 03:16:00,VALID,914.676,VALID,0,VALID,100,VALID,0.101885,VALID,18.7404,VALID,118,VALID,0,
2008-03-24, 03:17:00,VALID,914.658,VALID,0,VALID,100,VALID,0.0679233,VALID,18.7244,VALID,117,VALID,0.482143,
2008-03-24, 03:18:00,VALID,914.655,VALID,0,VALID,100,VALID,0.0679233,VALID,18.7179,VALID,116,VALID,0.415396,
2008-03-24, 03:19:00,VALID,914.646,VALID,0,VALID,100,VALID,0.0679233,VALID,18.7182,VALID,116,VALID,0.509629,
2008-03-24, 03:20:00,VALID,914.641,VALID,0,VALID,100,VALID,0.0169808,VALID,18.7147,VALID,116,VALID,0.0159801,
2008-03-24, 03:21:00,VALID,914.632,VALID,0,VALID,100,VALID,0.0339617,VALID,18.7022,VALID,116,VALID,0,
2008-03-24, 03:22:00,VALID,914.63,VALID,0,VALID,100,VALID,0.0169808,VALID,18.689,VALID,116,VALID,0,
2008-03-24, 03:23:00,VALID,914.624,VALID,0,VALID,100,VALID,0.0339617,VALID,18.6922,VALID,116,VALID,0,
2008-03-24, 03:24:00,VALID,914.617,VALID,0,VALID,100,VALID,0.0339617,VALID,18.702,VALID,116,VALID,0,
2008-03-24, 03:25:00,VALID,914.594,VALID,0,VALID,100,VALID,0.0509425,VALID,18.7149,VALID,116,VALID,0,
2008-03-24, 03:26:00,VALID,914.581,VALID,0,VALID,100,VALID,0.0339617,VALID,18.7249,VALID,116,VALID,0,
2008-03-24, 03:27:00,VALID,914.569,VALID,0,VALID,100,VALID,0,VALID,18.7346,VALID,116,VALID,0,
2008-03-24, 03:28:00,VALID,914.563,VALID,0,VALID,100,VALID,0,VALID,18.7508,VALID,116,VALID,0,
2008-03-24, 03:29:00,VALID,914.557,VALID,0,VALID,100,VALID,0,VALID,18.7765,VALID,119,VALID,0.164807,
2008-03-24, 03:30:00,VALID,914.558,VALID,0,VALID,100,VALID,0.0169808,VALID,18.7993,VALID,127,VALID,0,
2008-03-24, 03:31:00,VALID,914.532,VALID,0,VALID,100,VALID,0,VALID,18.7993,VALID,127,VALID,0,
2008-03-24, 03:32:00,VALID,914.533,VALID,0,VALID,100,VALID,0.0339617,VALID,18.812,VALID,127,VALID,0,
2008-03-24, 03:33:00,VALID,914.518,VALID,0,VALID,100,VALID,0.0509425,VALID,18.8289,VALID,139,VALID,0.350991,
2008-03-24, 03:34:00,VALID,914.504,VALID,0,VALID,100,VALID,0.0339617,VALID,18.8319,VALID,138,VALID,0.858817,
2008-03-24, 03:35:00,VALID,914.485,VALID,0,VALID,100,VALID,0.0169808,VALID,18.8514,VALID,135,VALID,0.982244,
2008-03-24, 03:36:00,VALID,914.473,VALID,0,VALID,100,VALID,0.0339617,VALID,18.8511,VALID,124,VALID,0.761265,
2008-03-24, 03:37:00,VALID,914.453,VALID,0,VALID,100,VALID,0.0339617,VALID,18.8417,VALID,118,VALID,0.846475,
2008-03-24, 03:38:00,VALID,914.458,VALID,0,VALID,100,VALID,0,VALID,18.8252,VALID,111,VALID,0.620276,
2008-03-24, 03:39:00,VALID,914.457,VALID,0,VALID,100,VALID,0.0339617,VALID,18.8155,VALID,121,VALID,0.784226,
2008-03-24, 03:40:00,VALID,914.453,VALID,0,VALID,100,VALID,0.101885,VALID,18.8155,VALID,132,VALID,0.888317,
2008-03-24, 03:41:00,VALID,914.469,VALID,0,VALID,100,VALID,0.0169808,VALID,18.8155,VALID,139,VALID,0.148065,
2008-03-24, 03:42:00,VALID,914.472,VALID,0,VALID,100,VALID,0.0339617,VALID,18.8185,VALID,141,VALID,0.294744,
2008-03-24, 03:43:00,VALID,914.483,VALID,0,VALID,100,VALID,0.0339617,VALID,18.8155,VALID,141,VALID,0.349516,
2008-03-24, 03:44:00,VALID,914.492,VALID,0,VALID,100,VALID,0.0509425,VALID,18.8122,VALID,132,VALID,0.500347,
2008-03-24, 03:45:00,VALID,914.505,VALID,0,VALID,100,VALID,0.0679233,VALID,18.7993,VALID,133,VALID,0.983665,
2008-03-24, 03:46:00,VALID,914.513,VALID,0,VALID,100,VALID,0.0509425,VALID,18.7765,VALID,131,VALID,0.996094,